Regional Weather Roundup
Issued by NWS

Home | Current Version | Previous Version | Text Only | Print | Product List | Glossary Off
Versions: 1 2 3 4 5 6 7 8 9 10 11 12 13 14 15 16 17 18 19 20 21 22 23 24 25 26 27 28 29 30 31 32 33 34 35 36 37 38 39 40 41 42 43 44 45 46 47 48 49 50

000
ASUS43 KMPX 251101
RWRMN
WEATHER ROUNDUP FOR MINNESOTA
NATIONAL WEATHER SERVICE TWIN CITIES/CHANHASSEN MN
600 AM CDT TUE JUL 25 2017


NOTE: "FAIR" INDICATES FEW OR NO CLOUDS BELOW 12,000 FEET WITH NO
SIGNIFICANT WEATHER AND/OR OBSTRUCTIONS TO VISIBILITY. N/A MEANS
CURRENT SKY AND/OR WEATHER CONDITIONS ARE NOT AVAILABLE.

MNZ060>063-068>070-251200-
   Twin Cities Metro

CITY           SKY/WX    TMP DP  RH WIND       PRES   REMARKS
TWIN CITIES    CLOUDY    67  60  78 S7        30.04S
ST PAUL        LGT RAIN  66  62  87 SE10      30.05F
CRYSTAL        CLOUDY    68  58  70 SE13      30.00F
BLAINE         CLOUDY    68  61  77 SE9       30.03F
LAKEVILLE      TSTM      63  63 100 S8G17     30.05R
EDEN PRAIRIE   CLOUDY    68  61  78 S13G21    30.02F
SOUTH ST PAUL  CLOUDY    67  60  79 SE5       30.04R
LAKE ELMO      FAIR      64  61  88 S8        30.07S
$$
MNZ001>005-007-008-013>017-022>024-027-028-251200-
   Northwest Minnesota

CITY           SKY/WX    TMP DP  RH WIND       PRES   REMARKS
BEMIDJI        PTCLDY    61  59  95 SE5       29.93S
HALLOCK        CLOUDY    66  64  94 S15       29.82F
ROSEAU         CLOUDY    63  57  82 S7        29.88R
WARROAD        CLOUDY    64  61  88 S5        29.89R
CROOKSTON      CLOUDY    64  63  94 S6        29.87S
FOSSTON        PTCLDY    63  61  94 SE10      29.90S
DETROIT LAKES  CLEAR     64  63  94 SE10      29.92S
MOORHEAD       PTCLDY    66  63  88 SE10      29.86F
PARK RAPIDS    CLEAR     64  60  87 SE8       29.94S
MAHNOMEN       FAIR      64  62  91 SE8       29.89F
$$
MNZ006-009>011-018-025>026-251200-
   North Central Minnesota

CITY           SKY/WX    TMP DP  RH WIND       PRES   REMARKS
BAUDETTE       CLOUDY    60  60 100 SE9       29.90F
FLAG ISLAND    CLOUDY    68  64  88 S8        29.88R
INTL FALLS     MOCLDY    60  57  89 SE6       29.95F
WASKISH        MOCLDY    64  61  88 CALM      29.93S
BIG FORK       MOCLDY    61  59  94 SE3       29.96F
LONGVILLE      CLEAR     63  61  94 SE7       29.95F
GRAND RAPIDS   PTCLDY    59  58  96 SE8       30.00F
CRANE LAKE     CLOUDY    52  52 100 CALM      30.03S FOG
ORR            PTCLDY    59  55  88 SE6       29.98F
COOK           CLOUDY    61  57  88 SE5       30.01F
WALKER         FAIR      64  60  88 S6        29.95S
$$
MNZ012-019>021-037-251200-
   Northeast Minnesota

CITY           SKY/WX    TMP DP  RH WIND       PRES   REMARKS
DULUTH         CLOUDY    56  56 100 SE8       30.04S
ELY            CLOUDY    59  55  88 S5        30.04S
HIBBING        CLOUDY    52  52 100 SE5       30.01S
EVELETH        PTCLDY    55  52  90 CALM      30.04R
DULUTH HARBOR  PTCLDY    61  59  94 N9        30.05S
TWO HARBORS    CLOUDY    54  48  82 NE3       30.05R
SILVER BAY     PTCLDY    46  46 100 CALM      30.06R
GRAND MARAIS     N/A     51  49  92 CALM      30.08S
G MARAIS ARPRT CLEAR     48  45  87 CALM      30.10S
$$
MNZ029>031-032-039>041-046>048-054>057-064-251200-
   West Central Minnesota

CITY           SKY/WX    TMP DP  RH WIND       PRES   REMARKS
FERGUS FALLS   CLEAR     68  63  83 SE14      29.88R
WHEATON        CLEAR     66  63  88 SE13      29.87F
ALEXANDRIA     CLOUDY    67  64  90 SE12      29.94F
ELBOW LAKE     FAIR      66  64  92 E16       29.89F
WADENA         MOCLDY    64  63  94 SE8       29.93S
GLENWOOD       PTCLDY    66  63  88 SE9G18    29.94F
APPLETON       CLOUDY    68  63  83 SE12      29.88F
BENSON         CLOUDY    68  63  83 S15       29.92F
ORTONVILLE     CLEAR     66  63  88 MISG      29.87F
MADISON        CLOUDY    70  64  83 SE8       29.89R
WILLMAR        FAIR      66  64  94 SE13      29.96F
$$
MNZ033>034-036-042>043-049>051-058-059-251200-
   Central Minnesota

CITY           SKY/WX    TMP DP  RH WIND       PRES   REMARKS
ST CLOUD       CLOUDY    65  64  97 MISG      29.98F
SAUK CENTRE    CLOUDY    65  63  93 SE8       29.97R
PAYNESVILLE    MOCLDY    67  64  89 S8G16     29.97F
AITKIN         CLOUDY    66  61  82 S10       29.97F
PINE RIVER     CLEAR     63  63 100 SE9       29.99F
BRAINERD       PTCLDY    64  61  90 SE10      29.97F
STAPLES        PTCLDY    64  61  88 SE9       29.95F
LONG PRAIRIE   CLOUDY    64  63  94 SE13G18   29.97R
LITTLE FALLS   CLOUDY    64  61  88 SE10      29.98S
LITCHFIELD     CLOUDY    70  64  83 SE8       30.00S
BUFFALO        CLOUDY    67  60  78 SE9       30.02R
MAPLE LAKE     CLOUDY    68  64  86 S6        30.02R
HUTCHINSON     CLOUDY    67  65  92 SE7       30.02R
$$
MNZ037-044-045-052-053-251200-
   East Central Minnesota

CITY           SKY/WX    TMP DP  RH WIND       PRES   REMARKS
PRINCETON      CLOUDY    66  63  88 SE7       30.01F
MORA           PTCLDY    63  61  94 SE5       30.05S
CAMBRIDGE      CLOUDY    68  57  68 SE6       30.02R
RUSH CITY      CLOUDY    64  61  91 S5        30.05R
MOOSE LAKE     CLOUDY    63  59  88 CALM      30.02R
HINCKLEY       CLOUDY    63  63 100 SE3       30.03S
CLOQUET        CLOUDY    57  55  94 E3        30.03F
MCGREGOR       CLOUDY    61  59  94 SE3       30.01S
$$
MNZ071>073-080-081-089-090-097-098-251200-
   Southwest Minnesota

CITY           SKY/WX    TMP DP  RH WIND       PRES   REMARKS
MONTEVIDEO     MOCLDY    66  66 100 S12       29.91F
GRANITE FALLS  MOCLDY    69  65  88 SE9G16    29.94S
CANBY          CLOUDY    68  63  85 CALM      29.91R
MARSHALL       MOCLDY    68  64  87 SE15G23   29.91F
REDWOOD FALLS  MOCLDY    68  63  84 SE13G23   29.95F
OLIVIA         CLOUDY    66  64  94 SE16      29.95S
PIPESTONE      CLEAR     66  63  88 S12G18    29.93R
WINDOM         PTCLDY    66  63  88 SE14      29.97S
WORTHINGTON    PTCLDY    66  63  90 S14G24    29.97F
JACKSON        PTCLDY    64  63  94 S13       30.00S
TRACY          CLOUDY    69  65  88 SE10G17   29.94S
SLAYTON        MOCLDY    64  62  91 SE12      29.95F FOG
$$
MNZ065>067-074>077-082>085-091>093-251200-
   South Central Minnesota

CITY           SKY/WX    TMP DP  RH WIND       PRES   REMARKS
MANKATO        CLOUDY    66  62  87 SE13      30.02S
NEW ULM        CLOUDY    66  63  88 SE12      29.99F
ST JAMES       MOCLDY    66  63  88 SE12      30.00F
FAIRMONT       MOCLDY    66  63  90 S16       30.01F
GLENCOE        CLOUDY    67  66  95 SE9       30.00S
FARIBAULT      CLOUDY    66  63  88 E8        30.07F
OWATONNA       MOCLDY    66  61  82 SE7       30.06R
WASECA         CLOUDY    64  59  82 SE9       30.07R THUNDER
ALBERT LEA     CLOUDY    66  61  82 S13G20    30.06F
$$
MNZ078>079-086>088-094>096-251200-
   Southeast Minnesota

CITY           SKY/WX    TMP DP  RH WIND       PRES   REMARKS
ROCHESTER      PTCLDY    62  60  93 S13G21    30.10R
RED WING       CLOUDY    66  57  72 S6        30.09R
STANTON        TSTM      64  61  88 S13       30.03F
DODGE CENTER   MOCLDY    63  61  94 S12       30.08S
WINONA         CLOUDY    63  57  82 SE3       30.10S
AUSTIN         CLOUDY    63  59  88 SE6       30.08S
PRESTON        PTCLDY    60  57  89 S9        30.11F
$$
ABBREVIATIONS USED IN REMARKS
   TC - TEMPERATURES IN CELSIUS
  WCI - WIND CHILL INDEX
   HX - HEAT INDEX
  VSB - VISIBILITY
$$




USA.gov is the U.S. government's official web portal to all federal, state and local government web resources and services.